Weather History for VANP - March, 2013

Change the Weather History Date:

Thursday, March 21, 2013

  Actual Average Record
Temperature  
Mean Temperature 84 °F -  
Max Temperature 102 °F 103 °F - ()
Min Temperature 66 °F 73 °F - ()
Cooling Degree Days 19    
Growing Degree Days 34 (Base 50)    
Moisture  
Dew Point 56 °F    
Average Humidity 39    
Maximum Humidity 83    
Minimum Humidity 11    
Precipitation  
Precipitation 0.00 in 0.01 in - ()
Sea Level Pressure  
Sea Level Pressure 29.82 in    
Wind  
Wind Speed 2 mph ()    
Max Wind Speed 8 mph    
Max Gust Speed -    
Visibility 2.2 miles    
Events      
T = Trace of Precipitation, MM = Missing Value Source: Averaged Metar Reports

Daily Weather History Graph

Daily Weather History Graph

Search for Another Location

Airport or City:

Trip Planner

Search our weather history database for the weather conditions in past years. The results will help you decide how hot, cold, wet, or windy it might be!

Date:

Astronomy

Mar. 21, 2013 Rise Set
Actual Time 6:17 AM IST 6:25 PM IST
Civil Twilight 5:54 AM IST 6:47 PM IST
Nautical Twilight 5:29 AM IST 7:13 PM IST
Astronomical Twilight 5:03 AM IST 7:38 PM IST
Moon 1:05 PM IST (3/21) 1:41 AM IST (3/21)
Length of Visible Light 12h 52m
Length of Day
12h 08m
Waxing Gibbous, 65% of the Moon is Illuminated
Mar 21
Waxing Gibbous
Mar 27
Full
Apr 3
Last Quarter
Apr 10
New
Apr 18
First Quarter

Hourly Weather History & Observations

Time (IST) Temp. Heat Index Dew Point Humidity Pressure Visibility Wind Dir Wind Speed Gust Speed Precip Events Conditions
12:10 AM 77.0 °F - 62.6 °F 61% 29.89 in 1.6 mi Calm Calm - N/A   Haze
1:10 AM 75.2 °F - 62.6 °F 65% 29.86 in 1.6 mi Calm Calm - N/A   Haze
2:10 AM 75.2 °F - 62.6 °F 65% 29.83 in 1.6 mi Calm Calm - N/A   Haze
3:10 AM 77.0 °F - 62.6 °F 61% 29.83 in 1.9 mi NNW 3.5 mph - N/A   Haze
4:10 AM 73.4 °F - 60.8 °F 65% 29.83 in 1.9 mi Calm Calm - N/A   Haze
5:10 AM 73.4 °F - 60.8 °F 65% 29.83 in 1.9 mi NW 2.3 mph - N/A   Haze
5:30 AM 67 °F - 63 °F 83% 29.81 in 1 mi Calm Calm - -   Haze
6:10 AM 73.4 °F - 60.8 °F 65% 29.86 in 1.9 mi NNW 2.3 mph - N/A   Haze
7:10 AM 75.2 °F - 59.0 °F 57% 29.86 in 1.9 mi North 3.5 mph - N/A   Haze
8:10 AM 80.6 °F 81.5 °F 60.8 °F 51% 29.92 in 1.9 mi NW 3.5 mph - N/A   Haze
8:30 AM 80 °F - 62 °F 45% 29.87 in 1 mi ESE 2.3 mph - -   Haze
9:10 AM 86.0 °F 87.3 °F 64.4 °F 48% 29.92 in 1.9 mi NE 2.3 mph - N/A   Haze
10:10 AM 91.4 °F 93.2 °F 64.4 °F 41% 30.06 in 1.9 mi ENE 2.3 mph - N/A   Haze
11:10 AM 95.0 °F 96.0 °F 62.6 °F 34% 29.89 in 1.9 mi SW 3.5 mph - N/A   Haze
11:30 AM 94 °F - 64 °F 28% 29.82 in 1 mi NW 3.5 mph - -   Haze
12:10 PM 98.6 °F 100.0 °F 62.6 °F 30% 29.86 in 1.9 mi South 3.5 mph - N/A   Haze
1:10 PM 102.2 °F 102.4 °F 59.0 °F 24% 29.83 in 2.5 mi NW 5.8 mph - N/A   Haze
2:10 PM 102.2 °F 101.4 °F 57.2 °F 22% 29.77 in 3.1 mi East 3.5 mph - N/A   Haze
3:10 PM 104.0 °F 102.3 °F 53.6 °F 19% 29.74 in 3.1 mi NNE 3.5 mph - N/A   Haze
4:10 PM 104.0 °F - 44.6 °F 13% 29.71 in 3.1 mi NNW 5.8 mph - N/A   Haze
5:10 PM 104.0 °F - 41.0 °F 12% 29.74 in 3.1 mi WNW 6.9 mph - N/A   Haze
5:30 PM 97 °F - 48 °F 11% 29.65 in 2 mi NW 8.1 mph - -   Haze
6:10 PM 102.2 °F - 41.0 °F 12% 29.74 in 3.1 mi NW 6.9 mph - N/A   Haze
7:10 PM 93.2 °F - 42.8 °F 17% 29.77 in 3.1 mi SW 2.3 mph - N/A   Haze
8:30 PM 79 °F - 54 °F 31% 29.75 in 2 mi West 3.5 mph - -   Haze
9:10 PM 87.8 °F - 42.8 °F 21% 29.80 in 3.1 mi WNW 2.3 mph - N/A   Haze
10:10 PM 87.8 °F - 41.0 °F 19% 29.80 in 3.1 mi SW 2.3 mph - N/A   Haze
11:10 PM 86.0 °F - 42.8 °F 22% 29.80 in 3.1 mi NW 2.3 mph - N/A   Haze
11:30 PM 77 °F - 53 °F 32% 29.77 in 2 mi NW 2.3 mph - -   Haze